ECSPL GCXO-GCLP

Flight info

Callsign ECSPL
Flight time 0h 28m
Altitude 7500
Route VFR
Aircraft C208/L-SDFGR/C

Departure

Time 2026-04-17 22:10
Airport Tenerife Norte-Ciudad de La Laguna Airport (GCXO)

Arrival

Time 2026-04-17 22:38
Airport Gran Canaria Airport (GCLP)
Time Latitude Longitude Altitude Speed Heading
2026-04-17 22:01 28.48781 -16.34993 2075 ft 0 kts 21°
2026-04-17 22:05 28.48779 -16.34994 2072 ft 3 kts 22°
2026-04-17 22:06 28.48720 -16.35019 2077 ft 14 kts 21°
2026-04-17 22:06 28.48692 -16.35051 2080 ft 1 kts 126°
2026-04-17 22:06 28.48680 -16.35032 2081 ft 5 kts 127°
2026-04-17 22:06 28.48652 -16.34968 2082 ft 18 kts 110°
2026-04-17 22:07 28.48587 -16.34771 2076 ft 33 kts 110°
2026-04-17 22:07 28.48499 -16.34501 2062 ft 40 kts 111°
2026-04-17 22:07 28.48410 -16.34237 2051 ft 30 kts 111°
2026-04-17 22:07 28.48336 -16.34016 2043 ft 28 kts 110°
2026-04-17 22:08 28.48260 -16.33783 2041 ft 33 kts 110°
2026-04-17 22:08 28.48210 -16.33639 2040 ft 10 kts 112°
2026-04-17 22:08 28.48168 -16.33548 2033 ft 13 kts 168°
2026-04-17 22:08 28.48143 -16.33637 2037 ft 16 kts 277°
2026-04-17 22:09 28.48131 -16.33746 2041 ft 12 kts 293°
2026-04-17 22:09 28.48189 -16.33920 2048 ft 42 kts 291°
2026-04-17 22:09 28.48339 -16.34366 2060 ft 78 kts 289°
2026-04-17 22:09 28.48565 -16.35042 2107 ft 101 kts 288°
2026-04-17 22:10 28.48854 -16.35787 2311 ft 99 kts 293°
2026-04-17 22:10 28.49167 -16.36470 2551 ft 97 kts 297°
2026-04-17 22:10 28.49751 -16.36880 2639 ft 110 kts
2026-04-17 22:10 28.50227 -16.36397 2856 ft 96 kts 90°
2026-04-17 22:11 28.49971 -16.35720 3016 ft 97 kts 121°
2026-04-17 22:11 28.49636 -16.35069 3262 ft 94 kts 117°
2026-04-17 22:11 28.49355 -16.34369 3468 ft 98 kts 117°
2026-04-17 22:11 28.49251 -16.33631 3758 ft 93 kts 95°
2026-04-17 22:12 28.49226 -16.32901 3955 ft 92 kts 98°
2026-04-17 22:12 28.49217 -16.32190 4140 ft 89 kts 96°
2026-04-17 22:12 28.49195 -16.31505 4318 ft 85 kts 98°
2026-04-17 22:12 28.49191 -16.30822 4408 ft 88 kts 96°
2026-04-17 22:13 28.49177 -16.30107 4532 ft 96 kts 97°
2026-04-17 22:13 28.49168 -16.29299 4676 ft 107 kts 97°
2026-04-17 22:13 28.49154 -16.28426 4840 ft 111 kts 98°
2026-04-17 22:13 28.49153 -16.27551 5057 ft 110 kts 97°
2026-04-17 22:14 28.49157 -16.26691 5263 ft 109 kts 97°
2026-04-17 22:14 28.49144 -16.25823 5459 ft 111 kts 98°
2026-04-17 22:14 28.49142 -16.24952 5655 ft 110 kts 97°
2026-04-17 22:14 28.49132 -16.24078 5847 ft 111 kts 97°
2026-04-17 22:15 28.49051 -16.23215 6045 ft 109 kts 111°
2026-04-17 22:15 28.48795 -16.22401 6239 ft 108 kts 120°
2026-04-17 22:15 28.48442 -16.21665 6438 ft 105 kts 124°
2026-04-17 22:15 28.48088 -16.20945 6619 ft 103 kts 124°
2026-04-17 22:16 28.47742 -16.20238 6803 ft 101 kts 124°
2026-04-17 22:16 28.47403 -16.19543 6976 ft 99 kts 124°
2026-04-17 22:16 28.47073 -16.18867 7153 ft 97 kts 124°
2026-04-17 22:16 28.46758 -16.18215 7320 ft 94 kts 124°
2026-04-17 22:17 28.46445 -16.17571 7443 ft 96 kts 124°
2026-04-17 22:17 28.46092 -16.16861 7462 ft 109 kts 124°
2026-04-17 22:17 28.45686 -16.16063 7465 ft 124 kts 125°
2026-04-17 22:17 28.45226 -16.15176 7466 ft 136 kts 125°
2026-04-17 22:18 28.44724 -16.14216 7463 ft 146 kts 125°
2026-04-17 22:18 28.44191 -16.13202 7452 ft 153 kts 125°
2026-04-17 22:18 28.43635 -16.12154 7448 ft 157 kts 125°
2026-04-17 22:18 28.43063 -16.11075 7449 ft 160 kts 125°
2026-04-17 22:19 28.42485 -16.09982 7443 ft 162 kts 125°
2026-04-17 22:19 28.41899 -16.08877 7439 ft 164 kts 125°
2026-04-17 22:19 28.41309 -16.07762 7435 ft 165 kts 125°
2026-04-17 22:19 28.40716 -16.06641 7433 ft 166 kts 125°
2026-04-17 22:20 28.40130 -16.05529 7434 ft 166 kts 125°
2026-04-17 22:20 28.39534 -16.04400 7430 ft 167 kts 125°
2026-04-17 22:20 28.38937 -16.03269 7428 ft 167 kts 125°
2026-04-17 22:20 28.38341 -16.02135 7422 ft 167 kts 124°
2026-04-17 22:21 28.37745 -16.01005 7418 ft 166 kts 125°
2026-04-17 22:21 28.37151 -15.99877 7414 ft 166 kts 125°
2026-04-17 22:21 28.36558 -15.98753 7413 ft 166 kts 125°
2026-04-17 22:21 28.35964 -15.97633 7406 ft 165 kts 125°
2026-04-17 22:22 28.35371 -15.96517 7403 ft 165 kts 125°
2026-04-17 22:22 28.34776 -15.95399 7400 ft 165 kts 125°
2026-04-17 22:22 28.34182 -15.94283 7398 ft 165 kts 125°
2026-04-17 22:22 28.33594 -15.93178 7398 ft 165 kts 125°
2026-04-17 22:23 28.33001 -15.92061 7400 ft 166 kts 125°
2026-04-17 22:23 28.32405 -15.90937 7395 ft 166 kts 125°
2026-04-17 22:23 28.31812 -15.89813 7393 ft 166 kts 125°
2026-04-17 22:23 28.31215 -15.88684 7395 ft 166 kts 125°
2026-04-17 22:24 28.30616 -15.87557 7394 ft 166 kts 125°
2026-04-17 22:24 28.30017 -15.86433 7396 ft 166 kts 125°
2026-04-17 22:24 28.29419 -15.85313 7396 ft 166 kts 125°
2026-04-17 22:24 28.28819 -15.84187 7394 ft 166 kts 125°
2026-04-17 22:25 28.28229 -15.83081 7390 ft 166 kts 125°
2026-04-17 22:25 28.27632 -15.81962 7389 ft 166 kts 125°
2026-04-17 22:25 28.27037 -15.80843 7388 ft 165 kts 125°
2026-04-17 22:25 28.26444 -15.79727 7387 ft 165 kts 125°
2026-04-17 22:26 28.25850 -15.78609 7385 ft 165 kts 125°
2026-04-17 22:26 28.25258 -15.77489 7386 ft 165 kts 125°
2026-04-17 22:26 28.24668 -15.76372 7386 ft 165 kts 125°
2026-04-17 22:26 28.24077 -15.75250 7386 ft 166 kts 125°
2026-04-17 22:27 28.23486 -15.74127 7385 ft 166 kts 125°
2026-04-17 22:27 28.22895 -15.73001 7388 ft 166 kts 125°
2026-04-17 22:27 28.22301 -15.71871 7388 ft 167 kts 125°
2026-04-17 22:27 28.21708 -15.70737 7386 ft 167 kts 125°
2026-04-17 22:28 28.21113 -15.69601 7390 ft 167 kts 125°
2026-04-17 22:28 28.20518 -15.68466 7388 ft 168 kts 125°
2026-04-17 22:28 28.19923 -15.67329 7386 ft 168 kts 125°
2026-04-17 22:28 28.19325 -15.66192 7388 ft 168 kts 125°
2026-04-17 22:29 28.18741 -15.65044 7387 ft 169 kts 120°
2026-04-17 22:29 28.18269 -15.63820 7389 ft 169 kts 119°
2026-04-17 22:29 28.17738 -15.62641 7387 ft 168 kts 123°
2026-04-17 22:29 28.17178 -15.61479 7390 ft 168 kts 123°
2026-04-17 22:30 28.16624 -15.60335 7391 ft 168 kts 123°
2026-04-17 22:30 28.16066 -15.59173 7391 ft 168 kts 123°
2026-04-17 22:30 28.15512 -15.58029 7440 ft 165 kts 124°
2026-04-17 22:30 28.14861 -15.56956 7437 ft 165 kts 131°
2026-04-17 22:31 28.14166 -15.55910 7306 ft 168 kts 131°
2026-04-17 22:31 28.13458 -15.54843 7120 ft 170 kts 131°
2026-04-17 22:31 28.12741 -15.53766 6932 ft 171 kts 131°
2026-04-17 22:31 28.12023 -15.52684 6748 ft 172 kts 131°
2026-04-17 22:32 28.11316 -15.51615 6556 ft 167 kts 131°
2026-04-17 22:32 28.10630 -15.50574 6293 ft 163 kts 131°
2026-04-17 22:32 28.10188 -15.49903 6097 ft 161 kts 131°
2026-04-17 22:32 28.09522 -15.48897 5782 ft 157 kts 131°
2026-04-17 22:33 28.08845 -15.47889 5417 ft 163 kts 131°
2026-04-17 22:33 28.08124 -15.46869 5060 ft 167 kts 136°
2026-04-17 22:33 28.07146 -15.46191 4699 ft 167 kts 161°
2026-04-17 22:33 28.06063 -15.45765 4342 ft 167 kts 162°
2026-04-17 22:34 28.04971 -15.45357 3977 ft 163 kts 163°
2026-04-17 22:34 28.03880 -15.45037 3621 ft 161 kts 166°
2026-04-17 22:34 28.02806 -15.44744 3457 ft 152 kts 166°
2026-04-17 22:34 28.01830 -15.44487 3455 ft 142 kts 165°
2026-04-17 22:35 28.00834 -15.44208 3458 ft 152 kts 166°
2026-04-17 22:35 27.99795 -15.43924 3462 ft 155 kts 166°
2026-04-17 22:35 27.98738 -15.43646 3460 ft 158 kts 166°
2026-04-17 22:35 27.97655 -15.43357 3462 ft 161 kts 166°
2026-04-17 22:36 27.96560 -15.43083 3462 ft 161 kts 169°
2026-04-17 22:36 27.95498 -15.42901 3419 ft 147 kts 171°
2026-04-17 22:36 27.94467 -15.42761 3002 ft 149 kts 174°
2026-04-17 22:36 27.93437 -15.42708 2556 ft 149 kts 177°
2026-04-17 22:37 27.92414 -15.42729 2196 ft 146 kts 175°
2026-04-17 22:37 27.91602 -15.42183 1820 ft 140 kts 117°
2026-04-17 22:37 27.91178 -15.41191 1434 ft 136 kts 110°
2026-04-17 22:37 27.90843 -15.40250 1245 ft 120 kts 95°
2026-04-17 22:38 27.91166 -15.39553 881 ft 100 kts 19°
2026-04-17 22:38 27.91754 -15.39316 347 ft 81 kts 360°
2026-04-17 22:38 27.92227 -15.39083 100 ft 69 kts 19°
2026-04-17 22:38 27.92597 -15.38919 67 ft 48 kts 21°
2026-04-17 22:39 27.92876 -15.38796 61 ft 42 kts 23°
2026-04-17 22:39 27.93126 -15.38716 63 ft 28 kts 359°
2026-04-17 22:39 27.93351 -15.38770 70 ft 14 kts 258°
2026-04-17 22:40 27.93240 -15.38827 73 ft 22 kts 201°
2026-04-17 22:40 27.93077 -15.38907 76 ft 27 kts 201°
2026-04-17 22:40 27.92937 -15.38973 76 ft 16 kts 200°
2026-04-17 22:40 27.92854 -15.39050 83 ft 17 kts 289°
2026-04-17 22:41 27.92839 -15.39163 86 ft 16 kts 202°
2026-04-17 22:41 27.92728 -15.39246 91 ft 22 kts 201°
2026-04-17 22:41 27.92642 -15.39284 96 ft 8 kts 208°
2026-04-17 22:41 27.92645 -15.39327 96 ft 4 kts 290°
2026-04-17 22:42 27.92661 -15.39354 97 ft 4 kts 50°
2026-04-17 22:42 27.92664 -15.39348 96 ft 3 kts 56°
2026-04-17 22:42 27.92664 -15.39347 96 ft 0 kts 53°